STARLINK-32482, 62141

Orbit data source: Space-Track

STARLINK-32482, 62141 is a payload satellite owned by SpaceX/Seattle (US) in LEO that was launched on Sat, 30 Nov 2024 UTC via an FALCON 9 launch vehicle from the Air Force Eastern Test Range (AFETR). Payload-class satellites include a variety of spacecraft equipped with specific instruments for various scientific and technological missions. These include communications satellites like Starlink; space stations such as the ISS; scientific satellites like the Hubble; Earth observation satellites from companies like Planet Labs, Umbra, and HawkEye 360; GPS; miniature CubeSats for education and research; and military/defense satellites.

Loading next visibility...
Identifier
62141, 2024-224C
Orbit
LEO
Country
Flag of USUS
Related business
Manufacturer
SpaceX/Seattle
Mission
Operational Commercial Communications
Bus & Motor
STARLINK V2M, Unknown motor
Mass
730 kg wet, ~700 kg dry
Launch date (UTC)
2024-11-30 (1 year ago)
Launch vehicle
FALCON 9
Launch site
Air Force Eastern Test Range (AFETR)
Object type
Payload
Rocket body
Debris
Shape & HBR
Box + 2 Pan, 17.7 m
Radar Cross Section
33.884 m², Large (>1 m²)

Expand to show TLE details & history
Last TLE update: 19 hours ago

TLE from 19 hours ago
0 STARLINK-32482
1 62141U 24224C   25348.82727907  .00022409  00000-0  82144-3 0  9991
2 62141  42.9986 277.1732 0000957 296.1073  63.9680 15.27576662 59342
Epoch: 2025-12-14T19:51Z
TLE epoch observation values (Epoch: 2025-12-14T19:51:16.911Z)
Latitude
-0.00003°
Longitude
-104.38191°
Altitude
482.546 km
Speed
7.626 km/s
True Right ascension
18h 28m 41s
True Declination
0° 00' 00"
Sunlit
Object was in daylight at epoch
Visualization orbit readout
Latitude
Unknown
Longitude
Unknown
Altitude
Unknown
Speed
Unknown
Apparent Right ascension
Unknown
Apparent Declination
Unknown
Sunlit
N/A
Visualization observer readout
Local Sidereal Time
13:25:44
Azimuth
Unknown
Elevation
Unknown
Doppler factor
Unknown
Orbital elements
Apogee altitude
485.661 km
Perigee altitude
484.348 km
Semi-major axis
6,863.141 km
Eccentricity
0.0001
Inclination
42.9986°
RAAN
277.1732°
Arg. of periapsis
296.1073°
True anomaly
63.97785°
Mean anomaly
63.968°
Eccentric anomaly
63.97293°
Mean motion
3.81732 °/min
Orbital period
94.31 mins
BSTAR
0.00082144
Loading maneuver chart data...
Computing Atmospheric mass density...
Loading historical data...
Loading historical data...
Loading historical data...
Loading historical data...
Loading historical data...
Loading historical data...
Loading historical data...

Documentation

Showing up to 5 results
|